Location: Artiguedieu
(43.5000°N, 0.5454°E)
Time: 10:46:16
(UTC+00:00)

SKYMED 2 - Pass Details

Date: 06 December 2020
Orbit: 621 x 623 km, 97.9° (Epoch: 27 January)

Event Time Altitude Azimuth Distance (km) Brightness Sun altitude
Rises 04:40:52 0° 151° (SSE) 2,890 7.5 -27.4°
Reaches altitude 10° 04:43:06 10° 145° (SE) 1,989 6.6 -27.0°
Maximum altitude 04:47:15 47° 72° (ENE) 832 4.5 -26.2°
Enters shadow 04:49:02 29° 17° (NNE) 1,142 4.9 -25.9°
